This is the latest recevied weather packets stored in our database for station/object OM8AKX-4. If no packets are shown the sender has not sent any weather packets the latest 10 day(s).
| Time | Temp. | Humidity | Pressure | Rain* | Wind** | Luminosity | Snow |
|---|---|---|---|---|---|---|---|
| 1777298570 | 8.89° C | 45% | 878.9 hPa | - | - | - | - |
| 1777297670 | 8.89° C | 44% | 879.1 hPa | - | - | - | - |
| 1777296770 | 8.33° C | 44% | 879.1 hPa | - | - | - | - |
| 1777295870 | 8.33° C | 44% | 879.2 hPa | - | - | - | - |
| 1777294970 | 8.33° C | 44% | 879.3 hPa | - | - | - | - |
| 1777294070 | 8.33° C | 44% | 879.4 hPa | - | - | - | - |
| 1777293169 | 8.33° C | 42% | 879.5 hPa | - | - | - | - |
| 1777292269 | 8.33° C | 41% | 879.6 hPa | - | - | - | - |
| 1777291369 | 9.44° C | 40% | 879.7 hPa | - | - | - | - |
| 1777290469 | 8.89° C | 38% | 879.7 hPa | - | - | - | - |
| 1777289569 | 8.89° C | 41% | 879.5 hPa | - | - | - | - |
| 1777288669 | 8.89° C | 43% | 880 hPa | - | - | - | - |
| 1777287769 | 8.33° C | 43% | 879.9 hPa | - | - | - | - |
| 1777286868 | 7.78° C | 39% | 880 hPa | - | - | - | - |
| 1777285968 | 7.78° C | 41% | 880.2 hPa | - | - | - | - |
| 1777285068 | 7.22° C | 44% | 880.2 hPa | - | - | - | - |
| 1777284168 | 6.67° C | 45% | 880.3 hPa | - | - | - | - |
| 1777283268 | 6.67° C | 40% | 880.5 hPa | - | - | - | - |
| 1777282368 | 6.67° C | 45% | 880.6 hPa | - | - | - | - |
| 1777281468 | 6.67° C | 45% | 880.7 hPa | - | - | - | - |
| 1777280568 | 6.11° C | 41% | 880.7 hPa | - | - | - | - |
| 1777279668 | 6.11° C | 46% | 880.7 hPa | - | - | - | - |
| 1777278768 | 5.56° C | 46% | 880.8 hPa | - | - | - | - |
| 1777277868 | 5.56° C | 48% | 880.8 hPa | - | - | - | - |
| 1777276968 | 5.56° C | 45% | 880.8 hPa | - | - | - | - |
* Rain since midnight (hover to see other rain measurements)
** Current wind speed in m/s (hover to see current wind gust speed)